Flight Track Log - Related Links

Times and Time Zones

All times are in EDT time to prevent confusion due to time zone crossing. See the SWA3762 flight status page for this flight to view local times or setup timezone preferences in your user account.

Time Position Orientation Groundspeed Altitude Reporting Facility
EDT Latitude Longitude Course Direction KTS MPH feet Rate Location/Type
Fri 12:47:52 PM 43.0203 -83.7228 48° Northeast 227 261 4,800  Level Cleveland Center
Fri 12:48:54 PM 43.0486 -83.6422 64° Northeast 232 267 8,100 2,516 Climbing Cleveland Center
Fri 12:49:56 PM 43.0842 -83.5444 64° Northeast 276 318 10,000 2,032 Climbing Cleveland Center
Fri 12:50:58 PM 43.0842 -83.4233 90° East 336 387 12,300 2,758 Climbing Cleveland Center
Fri 12:52:00 PM 42.4096 -83.5667 180° South  Level FlightAware Approximate
Fri 12:52:00 PM 43.0331 -83.3106 122° Southeast 344 396 15,700  Level Cleveland Center
Fri 12:53:02 PM 42.9394 -83.2708 163° South 377 434 18,500 2,903 Climbing Cleveland Center
Fri 12:54:04 PM 42.8389 -83.2989 192° South 370 426 21,700 2,160 Climbing Cleveland Center
Fri 12:55:07 PM 42.7331 -83.3253 190° South 386 444 23,000 1,728 Climbing Cleveland Center
Fri 12:56:09 PM 42.6247 -83.3533 191° South 391 450 25,300 2,371 Climbing Cleveland Center
Fri 12:57:11 PM 42.4922 -83.3872 191° South 399 459 27,900 1,306 Climbing Cleveland Center
Fri 12:58:13 PM 42.3881 -83.4136 191° South 415 478 28,000 871 Climbing Cleveland Center
Fri 12:59:15 PM 42.2717 -83.4442 191° South 418 481 29,700 1,887 Climbing Cleveland Center
Fri 01:00:17 PM 42.1333 -83.4783 190° South 427 491 31,900 1,790 Climbing Cleveland Center
Fri 01:01:19 PM 42.0125 -83.5083 190° South 432 497 33,400 1,016 Climbing Cleveland Center
Fri 01:02:21 PM 41.8906 -83.5386 190° South 443 510 34,000 339 Climbing Cleveland Center
Fri 01:03:23 PM 41.7681 -83.5692 191° South 445 512 34,100 432 Climbing Cleveland Center
Fri 01:04:26 PM 41.6467 -83.6006 191° South 445 512 34,900 672 Climbing Cleveland Center
Fri 01:05:28 PM 41.5269 -83.6286 190° South 442 509 35,500 871 Climbing Cleveland Center
Fri 01:06:30 PM 41.3867 -83.6636 191° South 433 498 36,700 726 Climbing Cleveland Center
Fri 01:07:32 PM 41.2675 -83.6925 190° South 433 498 37,000 145 Climbing Cleveland Center
Fri 01:08:34 PM 41.1478 -83.7222 191° South 438 504 37,000  Level Cleveland Center
Fri 01:09:36 PM 41.0183 -83.7550 191° South 437 503 37,000  Level Cleveland Center
Fri 01:10:38 PM 40.8975 -83.7836 190° South 438 504 37,000 871 Level Cleveland Center
Fri 01:11:40 PM 40.7786 -83.8128 191° South 439 505 38,800 1,250 Climbing Cleveland Center
Fri 01:12:38 PM 40.6628 -83.8394 190° South 431 496 39,500 600 Climbing Indianapolis Center
Fri 01:13:40 PM 40.5422 -83.8692 191° South 434 499 40,000 242 Climbing Indianapolis Center
Fri 01:14:42 PM 40.4222 -83.8992 191° South 440 506 40,000 97 Level Indianapolis Center
Fri 01:15:44 PM 40.3008 -83.9264 190° South 440 506 40,200 484 Climbing Indianapolis Center
Fri 01:16:46 PM 40.1539 -83.9622 191° South 447 514 41,000 258 Climbing Indianapolis Center
Fri 01:18:50 PM 39.9083 -84.0194 190° South 449 517 41,000  Level Indianapolis Center
Fri 01:19:52 PM 39.7861 -84.0494 191° South 450 518 41,000  Level Indianapolis Center
Fri 01:21:56 PM 39.5161 -84.1108 190° South 450 518 41,000  Level Indianapolis Center
Fri 01:22:58 PM 39.3944 -84.1400 190° South 450 518 41,000  Level Indianapolis Center
Fri 01:24:00 PM 39.2731 -84.1678 190° South 449 517 41,000  Level Indianapolis Center
Fri 01:25:02 PM 39.1525 -84.1953 190° South 445 512 41,000  Level Indianapolis Center
Fri 01:26:04 PM 39.0322 -84.2219 190° South 443 510 41,000  Level Indianapolis Center
Fri 01:27:06 PM 38.8889 -84.2547 190° South 441 507 41,000  Level Indianapolis Center
Fri 01:28:08 PM 38.7694 -84.2811 190° South 440 506 41,000  Level Indianapolis Center
Fri 01:29:10 PM 38.6478 -84.3086 190° South 440 506 41,000 -435 Level Indianapolis Center
Fri 01:30:12 PM 38.5153 -84.2883 173° South 466 536 40,100 -968 Descending Indianapolis Center
Fri 01:31:14 PM 38.3881 -84.2589 170° South 468 539 39,000 -1,065 Descending Indianapolis Center
Fri 01:32:16 PM 38.2472 -84.2264 170° South 446 513 37,900 -968 Descending Indianapolis Center
Fri 01:33:18 PM 38.1269 -84.2011 171° South 442 509 37,000 -726 Descending Indianapolis Center
Fri 01:34:20 PM 38.0083 -84.1744 170° South 436 502 36,400 -774 Descending Indianapolis Center
Fri 01:35:22 PM 37.8897 -84.1492 170° South 435 501 35,400 -677 Descending Indianapolis Center
Fri 01:36:24 PM 37.7700 -84.1231 170° South 435 501 35,000 -194 Descending Indianapolis Center
Fri 01:37:26 PM 37.6492 -84.0956 170° South 436 502 35,000  Level Indianapolis Center
Fri 01:38:28 PM 37.5069 -84.0642 170° South 442 509 35,000  Level Indianapolis Center
Fri 01:39:29 PM 37.3850 -84.0386 171° South 442 509 35,000  Level Indianapolis Center
Fri 01:40:31 PM 37.2619 -84.0117 170° South 443 510 35,000  Level Indianapolis Center
Fri 01:41:33 PM 37.1411 -83.9850 170° South 444 511 35,000  Level Indianapolis Center
Fri 01:42:35 PM 37.0203 -83.9603 171° South 443 510 35,000  Level Indianapolis Center
Fri 01:43:37 PM 36.8792 -83.9292 170° South 442 509 35,000  Level Indianapolis Center
Fri 01:44:39 PM 36.7597 -83.9033 170° South 442 509 35,000  Level Indianapolis Center
Fri 01:45:41 PM 36.6408 -83.8683 167° South 439 505 35,000  Level Indianapolis Center
Fri 01:46:43 PM 36.5108 -83.8325 168° South 442 509 35,000  Level Indianapolis Center
Fri 01:47:45 PM 36.3906 -83.7981 167° South 442 509 35,000  Level Indianapolis Center
Fri 01:48:47 PM 36.2689 -83.7642 167° South 442 509 35,000  Level Indianapolis Center
Fri 01:49:49 PM 36.1497 -83.7303 167° South 442 509 35,000  Level Indianapolis Center
Fri 01:50:35 PM 36.0453 -83.7022 168° South 447 514 35,000  Level Atlanta Center
Fri 01:51:35 PM 35.9264 -83.6694 167° South 447 514 35,000  Level Atlanta Center
Fri 01:52:35 PM 35.8053 -83.6342 167° South 447 514 35,000  Level Atlanta Center
Fri 01:53:35 PM 35.6861 -83.6042 168° South 447 514 35,000  Level Atlanta Center
Fri 01:54:35 PM 35.5672 -83.5689 166° South 447 514 35,000  Level Atlanta Center
Fri 01:55:35 PM 35.4439 -83.5339 167° South 452 520 35,000  Level Atlanta Center
Fri 01:56:35 PM 35.3206 -83.5017 168° South 452 520 35,000  Level Atlanta Center
Fri 01:57:35 PM 35.1975 -83.4694 168° South 452 520 35,000  Level Atlanta Center
Fri 01:58:35 PM 35.0867 -83.4397 168° South 452 520 35,000  Level Atlanta Center
Fri 01:59:35 PM 34.9614 -83.4050 167° South 452 520 35,000 100 Level Atlanta Center
Fri 02:00:35 PM 34.8400 -83.3706 167° South 452 520 35,200 450 Climbing Atlanta Center
Fri 02:01:35 PM 34.7147 -83.3364 167° South 452 520 35,900 400 Climbing Atlanta Center
Fri 02:02:35 PM 34.5747 -83.2972 167° South 457 526 36,000 50 Climbing Atlanta Center
Fri 02:03:35 PM 34.4514 -83.2628 167° South 457 526 36,000  Level Atlanta Center
Fri 02:04:35 PM 34.3406 -83.2336 168° South 457 526 36,000  Level Atlanta Center
Fri 02:05:35 PM 34.2131 -83.1997 168° South 462 532 36,000  Level Atlanta Center
Fri 02:06:35 PM 34.0875 -83.1683 168° South 462 532 36,000  Level Atlanta Center
Fri 02:07:35 PM 33.9642 -83.1347 167° South 462 532 36,000  Level Atlanta Center
Fri 02:08:35 PM 33.8428 -83.1008 167° South 468 539 36,000  Level Atlanta Center
Fri 02:09:35 PM 33.7153 -83.0697 169° South 463 533 36,000  Level Atlanta Center
Fri 02:10:35 PM 33.5939 -83.0364 167° South 457 526 36,000  Level Atlanta Center
Fri 02:11:35 PM 33.4725 -83.0053 168° South 452 520 36,000  Level Atlanta Center
Fri 02:12:35 PM 33.3514 -82.9744 168° South 452 520 36,000  Level Atlanta Center
Fri 02:13:35 PM 33.2300 -82.9411 167° South 452 520 36,000  Level Atlanta Center
Fri 02:14:35 PM 33.0939 -82.9106 169° South 447 514 36,000  Level Atlanta Center
Fri 02:15:35 PM 32.9706 -82.8775 167° South 447 514 36,000  Level Atlanta Center
Fri 02:17:39 PM 32.7261 -82.8111 167° South 446 513 36,000  Level Jacksonville Center
Fri 02:18:39 PM 32.6069 -82.7817 168° South 452 520 36,000  Level Jacksonville Center
Fri 02:19:39 PM 32.4839 -82.7522 169° South 452 520 36,000  Level Jacksonville Center
Fri 02:20:39 PM 32.3564 -82.7181 167° South 447 514 36,000  Level Jacksonville Center
Fri 02:21:39 PM 32.2311 -82.6839 167° South 447 514 36,000  Level Jacksonville Center
Fri 02:22:39 PM 32.1100 -82.6522 168° South 452 520 36,000  Level Jacksonville Center
Fri 02:23:39 PM 31.9908 -82.6231 168° South 452 520 36,000  Level Jacksonville Center
Fri 02:24:39 PM 31.8675 -82.5917 168° South 446 513 36,000  Level Jacksonville Center
Fri 02:25:39 PM 31.7464 -82.5603 168° South 446 513 36,000  Level Jacksonville Center
Fri 02:26:39 PM 31.6253 -82.5289 168° South 446 513 36,000  Level Jacksonville Center
Fri 02:27:39 PM 31.5019 -82.5003 169° South 451 519 36,000  Level Jacksonville Center
Fri 02:28:39 PM 31.3786 -82.4764 171° South 451 519 36,000  Level Jacksonville Center
Fri 02:29:39 PM 31.2575 -82.4575 172° South 446 513 36,000 -250 Level Jacksonville Center
Fri 02:30:39 PM 31.1342 -82.4314 170° South 446 513 35,500 -750 Descending Jacksonville Center
Fri 02:31:39 PM 31.0150 -82.4006 167° South 446 513 34,500 -750 Descending Jacksonville Center
Fri 02:32:39 PM 30.8897 -82.3794 172° South 446 513 34,000 -250 Descending Jacksonville Center
Fri 02:33:39 PM 30.7686 -82.3558 170° South 451 519 34,000  Level Jacksonville Center
Fri 02:34:39 PM 30.6494 -82.3300 169° South 451 519 34,000  Level Jacksonville Center
Fri 02:35:39 PM 30.5261 -82.3017 169° South 451 519 34,000 -400 Level Jacksonville Center
Fri 02:36:39 PM 30.4050 -82.2758 170° South 451 519 33,200 -950 Descending Jacksonville Center
Fri 02:37:39 PM 30.2878 -82.2528 170° South 440 506 32,100 -1,050 Descending Jacksonville Center
Fri 02:38:39 PM 30.1667 -82.2269 170° South 440 506 31,100 -1,000 Descending Jacksonville Center
Fri 02:39:39 PM 30.0475 -82.1894 165° South 440 506 30,100 -950 Descending Jacksonville Center
Fri 02:40:39 PM 29.9408 -82.1567 165° South 445 512 29,200 -1,250 Descending Jacksonville Center
Fri 02:41:39 PM 29.8278 -82.1169 163° South 440 506 27,600 -2,150 Descending Jacksonville Center
Fri 02:42:39 PM 29.7003 -82.0678 161° South 435 501 24,900 -2,000 Descending Jacksonville Center
Fri 02:43:39 PM 29.6122 -82.0372 163° South 435 501 23,600 -1,800 Descending Jacksonville Center
Fri 02:45:00 PM 29.4620 -81.9818 162° South  Level FlightAware Approximate
Fri 02:45:39 PM 29.3925 -81.9631 162° South 398 458 19,500  Level Jacksonville Center
Fri 02:46:39 PM 29.2922 -81.9258 162° South 392 451 17,700 -2,000 Descending Jacksonville Center
Fri 02:47:39 PM 29.1833 -81.8864 162° South 382 440 15,500 -2,050 Descending Jacksonville Center
Fri 02:48:39 PM 29.0828 -81.8494 162° South 382 440 13,600 -1,800 Descending Jacksonville Center
Fri 02:49:39 PM 28.9864 -81.8172 164° South 377 434 11,900 -850 Descending Jacksonville Center
Fri 02:50:39 PM 28.9317 -81.7467 132° Southeast 340 391 11,900 -750 Level Jacksonville Center
Fri 02:51:39 PM 28.8767 -81.6619 127° Southeast 312 359 10,400 -1,528 Descending Jacksonville Center
Fri 02:52:25 PM 28.8333 -81.6000 129° Southeast 303 349 9,200 -1,320 Descending Orlando TRACON
Fri 02:53:19 PM 28.8000 -81.5333 120° Southeast 297 342 8,200 -1,461 Descending Orlando TRACON
Fri 02:54:20 PM 28.7500 -81.4500 124° Southeast 293 337 6,400 -1,736 Descending Orlando TRACON
Fri 02:55:20 PM 28.7000 -81.3833 131° Southeast 267 307 4,700 -1,350 Descending Orlando TRACON
Fri 02:56:20 PM 28.6333 -81.3500 156° South 244 281 3,700 -952 Descending Orlando TRACON
Fri 02:57:26 PM 28.5833 -81.3000 139° Southeast 238 274 2,700 -898 Descending Orlando TRACON
Fri 02:58:27 PM 28.5167 -81.3000 180° South 193 222 1,800 -939 Descending Orlando TRACON
Fri 02:59:21 PM 28.4833 -81.3000 180° South 145 167 900 -1,000 Descending Orlando TRACON
Fri 03:01:00 PM 28.4294 -81.3090 180° South  Level Estimated
Fri 03:08:00 PM 28.4294 -81.3090 24° Northeast  Level Estimated
Fri 03:09:00 PM 28.4294 -81.3090 24° Northeast  Level Estimated
Fri 03:10:00 PM 28.4294 -81.3090 24° Northeast  Level Estimated
Fri 03:11:00 PM 28.4294 -81.3090 24° Northeast  Level Estimated

Login

Don't have an account? Register now (free) for customized features, flight alerts, and more!